FW1093 Weather Reports


Display with metric or nautical units.
time (UTC)temp
F
wind
direction
speed
MPH
gust
MPH
rain 1hr
in
rain 24hr
in
rain mn
in
humidity
%
barometer
mb
20260905234326 67 276 0.0 0.0 0.00 0.00 0.00 89 1011.8
20260905233314 68 276 0.0 0.0 0.00 0.00 0.00 89 1011.7
20260905231323 69 276 0.0 0.0 0.00 0.00 0.00 90 1011.5
20260905230330 69 276 0.0 0.0 0.00 0.00 0.00 90 1011.6
20260905225318 69 276 0.0 0.0 0.00 0.00 0.00 89 1011.4
20260905224327 70 276 0.0 0.0 0.00 0.00 0.00 88 1011.4
20260905223342 70 276 0.0 0.0 0.00 0.00 0.00 89 1011.4
20260905222337 70 276 0.0 0.0 0.00 0.00 0.00 89 1011.5
20260905221326 70 276 0.0 0.0 0.00 0.00 0.00 88 1011.3
20260905220334 70 276 0.0 0.0 0.00 0.00 0.00 88 1011.2
20260905215344 71 276 0.0 0.0 0.00 0.00 0.00 88 1011.3
20260905214331 71 276 0.0 0.0 0.00 0.00 0.00 88 1011.3
20260905213320 71 276 0.0 0.0 0.00 0.00 0.00 87 1011.1
20260905212327 71 276 0.0 0.0 0.00 0.00 0.00 86 1011.0
20260905211314 72 276 0.0 0.0 0.00 0.00 0.00 86 1011.0
20260905210323 72 276 0.0 0.0 0.00 0.00 0.00 85 1010.9
20260905205313 71 276 0.0 0.0 0.00 0.00 0.00 85 1010.9
20260905204328 71 276 0.0 0.0 0.00 0.00 0.00 85 1010.8
20260905203356 71 276 0.0 0.0 0.00 0.00 0.00 84 1010.7
20260905202322 71 276 0.0 0.0 0.00 0.00 0.00 83 1010.8
20260905201313 72 276 0.0 0.0 0.00 0.00 0.00 80 1010.8
20260905200328 72 276 0.0 0.0 0.00 0.00 0.00 81 1010.6
20260905195317 72 276 0.0 0.0 0.00 0.00 0.00 82 1010.6
20260905194328 72 276 0.0 0.0 0.00 0.00 0.00 81 1010.7
20260905193315 72 276 0.0 0.0 0.00 0.00 0.00 80 1010.6
20260905192330 73 276 0.0 0.0 0.00 0.00 0.00 79 1010.7
20260905191320 73 276 0.0 0.0 0.00 0.00 0.00 78 1010.6
20260905190336 73 276 0.0 0.0 0.00 0.00 0.00 78 1010.7
20260905185324 74 276 0.0 0.0 0.00 0.00 0.00 76 1010.6
20260905184312 73 276 0.0 0.0 0.00 0.00 0.00 75 1010.6
20260905183327 73 276 0.0 0.0 0.00 0.00 0.00 76 1010.7
20260905182336 74 276 0.0 1.0 0.00 0.00 0.00 75 1010.7
20260905181326 74 277 0.0 2.0 0.00 0.00 0.00 73 1010.7
20260905180334 74 284 0.0 3.0 0.00 0.00 0.00 72 1010.8
20260905175320 72 266 0.0 0.0 0.00 0.00 0.00 77 1010.9
20260905174329 73 266 0.0 0.0 0.00 0.00 0.00 76 1010.9
20260905173317 74 266 0.0 3.0 0.00 0.00 0.00 72 1010.9
20260905172324 75 284 0.0 4.0 0.00 0.00 0.00 71 1010.8
20260905171316 74 269 1.0 3.0 0.00 0.00 0.00 69 1010.8
20260905170325 73 281 0.0 2.0 0.00 0.00 0.00 73 1010.9
20260905165332 73 307 0.0 2.0 0.00 0.00 0.00 74 1010.8
20260905164320 73 260 0.0 2.0 0.00 0.00 0.00 68 1010.8
20260905163336 73 278 0.0 1.0 0.00 0.00 0.00 74 1010.9
20260905162344 72 278 0.0 2.0 0.00 0.00 0.00 76 1010.8
20260905161335 72 281 0.0 2.0 0.00 0.00 0.00 70 1010.9
20260905160323 72 33 1.0 2.0 0.00 0.00 0.00 70 1010.8
20260905155312 73 331 0.0 3.0 0.00 0.00 0.00 70 1010.8
20260905154327 72 290 1.0 3.0 0.00 0.00 0.00 72 1010.8
20260905153320 72 338 1.0 4.0 0.00 0.00 0.00 72 1010.8
20260905152337 72 286 0.0 1.0 0.00 0.00 0.00 75 1010.9
20260905151330 71 281 1.0 3.0 0.00 0.00 0.00 76 1011.0
20260905150324 70 356 0.0 3.0 0.00 0.00 0.00 79 1011.0
20260905145316 70 359 1.0 4.0 0.00 0.00 0.00 79 1011.3
20260905144333 70 317 0.0 2.0 0.00 0.00 0.00 82 1011.0
20260905143323 69 2 1.0 2.0 0.00 0.00 0.00 84 1010.9
20260905142316 68 288 0.0 1.0 0.00 0.00 0.00 86 1010.8
20260905141335 67 290 0.0 1.0 0.00 0.00 0.00 86 1011.0
20260905140325 67 349 0.0 1.0 0.00 0.00 0.00 87 1011.1
20260905135316 66 338 0.0 1.0 0.00 0.00 0.00 88 1011.1
20260905134337 66 276 0.0 1.0 0.00 0.00 0.00 90 1011.4
20260905133327 65 281 0.0 2.0 0.00 0.00 0.00 91 1011.4
20260905132315 64 281 0.0 1.0 0.00 0.00 0.00 95 1011.3
20260905131313 63 274 0.0 1.0 0.00 0.00 0.00 97 1011.4
20260905130334 62 271 0.0 1.0 0.00 0.00 0.00 98 1011.3
20260905125330 62 271 0.0 0.0 0.00 0.00 0.00 98 1011.4
20260905124325 62 271 0.0 0.0 0.00 0.00 0.00 98 1011.4
20260905123338 61 271 0.0 0.0 0.00 0.00 0.00 98 1011.4
20260905122335 60 271 0.0 0.0 0.00 0.00 0.00 98 1011.7
20260905121330 60 271 0.0 0.0 0.00 0.00 0.00 98 1011.7
20260905120338 59 271 0.0 0.0 0.00 0.00 0.00 98 1011.6
20260905115329 59 271 0.0 0.0 0.00 0.00 0.00 98 1011.4
20260905114317 58 271 0.0 0.0 0.00 0.00 0.00 97 1011.2
20260905113324 58 271 0.0 0.0 0.00 0.00 0.00 97 1011.1
20260905112331 57 271 0.0 0.0 0.00 0.00 0.00 97 1011.1
20260905111319 57 271 0.0 0.0 0.00 0.00 0.00 97 1010.9
20260905110328 57 271 0.0 0.0 0.00 0.00 0.00 97 1010.8
20260905105317 57 271 0.0 0.0 0.00 0.00 0.00 97 1010.7
20260905104326 57 271 0.0 0.0 0.00 0.00 0.00 97 1010.6
20260905103316 57 271 0.0 0.0 0.00 0.00 0.00 97 1010.6
20260905102323 57 271 0.0 0.0 0.00 0.00 0.00 96 1010.5
20260905101312 57 271 0.0 0.0 0.00 0.00 0.00 96 1010.5
20260905100319 57 271 0.0 0.0 0.00 0.00 0.00 97 1010.5
20260905095327 57 271 0.0 0.0 0.00 0.00 0.00 96 1010.5
20260905094336 57 271 0.0 0.0 0.00 0.00 0.00 96 1010.4
20260905093324 58 271 0.0 0.0 0.00 0.00 0.00 96 1010.4
20260905092314 58 271 0.0 0.0 0.00 0.00 0.00 96 1010.3
20260905091330 58 271 0.0 0.0 0.00 0.00 0.00 96 1010.3
20260905090323 58 271 0.0 0.0 0.00 0.00 0.00 96 1010.3
20260905085312 58 271 0.0 0.0 0.00 0.14 0.00 96 1010.4
20260905084327 59 271 0.0 0.0 0.00 0.14 0.00 96 1010.5
20260905083343 59 271 0.0 0.0 0.00 0.14 0.00 96 1010.5
20260905082328 59 271 0.0 0.0 0.00 0.14 0.00 96 1010.4
20260905081315 59 271 0.0 0.0 0.00 0.14 0.00 96 1010.4
20260905080324 60 271 0.0 0.0 0.00 0.14 0.00 96 1010.5
20260905075314 60 271 0.0 0.0 0.00 0.73 0.00 96 1010.4
20260905074322 60 271 0.0 0.0 0.00 0.73 0.00 96 1010.3
20260905073331 60 271 0.0 0.0 0.00 0.73 0.00 96 1010.3
20260905072317 60 271 0.0 0.0 0.00 0.73 0.00 96 1010.2
20260905071352 60 271 0.0 0.0 0.00 0.73 0.00 96 1010.4
20260905070337 60 271 0.0 0.0 0.00 0.73 0.00 96 1010.5
20260905065326 60 271 0.0 0.0 0.00 0.73 0.00 96 1010.5
20260905064315 60 271 0.0 0.0 0.00 0.73 0.00 96 1010.5
20260905063331 61 271 0.0 0.0 0.00 0.73 0.00 96 1010.5
20260905062320 61 271 0.0 0.0 0.00 0.73 0.00 96 1010.7
20260905061328 61 271 0.0 0.0 0.00 0.73 0.00 96 1010.8
20260905060314 61 271 0.0 0.0 0.00 0.73 0.00 96 1010.9
20260905055330 61 271 0.0 0.0 0.00 0.73 0.00 95 1011.1
20260905054320 61 271 0.0 0.0 0.00 0.73 0.00 95 1011.1
20260905053355 62 271 0.0 0.0 0.00 0.73 0.00 96 1011.1
20260905052338 62 271 0.0 0.0 0.00 0.73 0.00 95 1011.2
20260905051325 62 271 0.0 0.0 0.00 0.73 0.00 96 1011.3
20260905050314 63 271 0.0 0.0 0.00 0.73 0.00 96 1011.4
20260905045328 63 271 0.0 0.0 0.00 0.73 0.00 96 1011.5
20260905044318 62 271 0.0 0.0 0.00 0.73 0.00 96 1011.6
20260905043329 63 271 0.0 0.0 0.00 0.73 0.00 96 1011.6
20260905042316 63 271 0.0 0.0 0.00 0.73 0.00 96 1011.4
20260905041327 63 271 0.0 0.0 0.00 0.73 0.00 96 1011.6
20260905040335 62 271 0.0 0.0 0.00 0.73 0.00 96 1011.6
20260905035336 62 271 0.0 0.0 0.00 0.73 0.73 96 1011.6
20260905034324 62 271 0.0 0.0 0.00 0.73 0.73 95 1011.6
20260905033332 63 271 0.0 0.0 0.00 0.73 0.73 95 1011.6
20260905032348 63 271 0.0 0.0 0.00 0.73 0.73 95 1011.5
20260905031314 63 271 0.0 0.0 0.00 0.73 0.73 96 1011.4
20260905030321 63 271 0.0 0.0 0.00 0.73 0.73 95 1011.6
20260905025329 63 271 0.0 0.0 0.00 0.73 0.73 95 1011.3
20260905024316 63 271 0.0 0.0 0.00 0.73 0.73 95 1011.3
20260905023324 63 271 0.0 0.0 0.00 0.73 0.73 94 1011.2
20260905022316 63 271 0.0 0.0 0.00 0.73 0.73 94 1011.3
20260905021347 63 271 0.0 0.0 0.00 0.73 0.73 94 1011.4
20260905020342 64 271 0.0 0.0 0.00 0.73 0.73 94 1011.3
20260905015314 64 271 0.0 0.0 0.00 0.73 0.73 94 1011.5
20260905014323 64 271 0.0 0.0 0.00 0.73 0.73 93 1011.5
20260905013332 64 271 0.0 0.0 0.00 0.73 0.73 93 1011.4
20260905012320 64 271 0.0 0.0 0.00 0.73 0.73 93 1011.5
20260905011335 65 271 0.0 0.0 0.00 0.73 0.73 92 1011.3
20260905010321 65 271 0.0 0.0 0.00 0.73 0.73 91 1011.4
20260905005328 65 271 0.0 0.0 0.00 0.73 0.73 91 1011.5
20260905004314 65 271 0.0 0.0 0.00 0.73 0.73 91 1011.5
20260905003323 66 271 0.0 0.0 0.00 0.73 0.73 90 1011.5
20260905002312 66 271 0.0 0.0 0.00 0.73 0.73 90 1011.4
20260905001320 67 271 0.0 0.0 0.00 0.73 0.73 90 1011.4
20260905000328 67 271 0.0 0.0 0.00 0.73 0.73 89 1011.2
20260904235318 68 271 0.0 0.0 0.00 0.73 0.73 88 1011.1